Theta_e
322 328 332 341 345 346 347 348 347 346 347 346 347 347 348 348 348 348 349 348 349 349 348 349 349 348 347 346 346 347 347 347 349 350 354 354 354 353 353 356 354 351 353
320 326 332 337 341 343 344 346 346 347 347 347 347 347 347 347 347 348 348 348 347 347 349 349 349 349 348 347 346 346 346 348 349 348 350 351 352 353 352 355 354 351 354
319 322 329 332 334 336 338 339 341 343 344 344 343 343 343 343 343 344 344 344 345 346 347 347 348 348 349 348 348 347 347 349 349 347 347 350 348 353 351 355 354 353 354
315 319 324 328 329 330 332 334 336 337 336 337 338 340 340 340 340 340 339 339 341 343 344 345 346 347 349 348 347 347 349 349 348 345 337 344 346 352 350 352 355 354 353
314 318 320 323 324 325 326 328 330 330 330 332 333 334 333 335 333 333 333 335 336 339 341 343 344 344 345 344 345 346 347 349 347 344 341 340 347 349 350 351 352 353 351
308 314 317 318 321 321 321 323 323 323 323 325 325 327 330 325 323 324 327 328 328 330 333 335 338 339 340 342 343 343 345 347 345 341 344 342 342 350 350 352 352 351 348
303 310 313 314 316 317 317 317 318 318 317 317 318 320 320 317 317 318 320 321 323 324 326 329 332 332 333 337 340 341 344 344 341 340 341 342 344 347 349 351 353 352 352
302 304 307 308 310 312 313 313 313 314 314 313 313 313 313 312 312 313 315 316 317 318 319 323 327 326 327 331 333 335 335 337 338 338 338 340 342 345 345 348 352 352 351
301 301 302 303 304 307 307 308 309 309 310 310 309 308 308 308 308 309 309 312 313 314 315 318 318 319 319 319 321 322 322 329 336 337 337 338 339 343 345 345 351 351 351
299 299 300 302 302 303 304 304 305 306 306 306 306 305 304 304 304 304 305 307 310 311 311 313 313 313 313 313 313 314 315 320 335 335 336 337 338 341 343 344 347 350 350
298 298 300 300 301 301 301 299 301 302 302 302 302 302 304 303 303 303 302 303 306 306 307 309 310 310 309 310 310 311 312 323 325 331 335 333 338 340 341 341 345 348 349
297 297 298 299 299 300 298 300 301 300 301 301 302 302 302 302 301 300 302 301 302 302 304 306 306 306 307 307 307 310 309 311 313 321 328 331 335 338 340 341 344 345 348
297 296 297 298 299 299 299 300 301 301 301 301 301 301 301 301 301 300 300 300 301 301 301 302 303 303 305 306 306 306 307 307 308 312 318 325 329 334 337 339 343 344 345
295 296 296 297 298 299 299 299 299 300 300 300 299 300 299 299 298 298 298 299 299 300 299 299 300 302 303 304 305 305 306 306 306 306 309 315 321 327 331 335 339 343 345
294 295 296 297 297 297 298 298 299 298 298 298 298 298 297 297 296 296 297 297 297 298 297 297 298 299 301 302 304 304 304 305 305 305 307 309 312 314 326 332 335 338 342
295 295 295 296 296 296 297 297 298 298 297 297 297 297 295 295 294 294 295 295 295 295 295 295 296 297 298 300 301 302 302 303 304 305 305 307 311 312 314 325 333 335 338
295 295 295 295 296 296 296 296 297 296 296 296 295 295 294 293 293 292 293 293 294 294 294 295 295 295 296 297 298 299 300 302 303 303 304 305 306 309 311 313 320 333 335
294 294 295 293 294 295 295 295 295 296 296 296 295 295 293 291 291 291 291 292 293 292 293 293 293 293 294 294 295 296 297 299 301 302 304 305 305 306 309 312 318 324 332
294 294 293 294 294 294 294 293 294 294 294 295 294 293 292 291 290 290 290 291 291 291 291 291 291 292 291 293 294 295 296 297 299 300 302 302 303 305 306 308 310 311 324
293 293 293 293 294 293 293 293 293 293 294 293 293 292 290 290 289 289 289 290 290 289 290 290 290 291 291 292 291 291 294 297 299 299 299 300 302 303 304 306 308 308 312
292 292 292 292 292 292 292 291 291 291 291 291 291 290 289 288 288 288 288 288 289 288 288 288 289 289 290 290 289 292 292 296 297 298 300 301 302 303 304 306 307 309 311
291 291 291 291 292 291 291 290 290 289 290 290 290 289 289 288 287 286 286 287 287 287 287 287 287 287 287 289 286 287 288 291 297 296 295 297 299 301 303 305 306 309 311
290 291 291 291 291 291 290 289 288 288 287 287 288 288 288 287 287 286 286 286 286 287 286 286 286 286 284 287 288 286 285 285 288 293 293 295 296 298 301 302 304 308 312
290 291 291 290 289 289 289 288 287 286 286 287 287 287 286 286 285 285 285 285 285 286 285 286 285 285 284 283 286 286 287 287 284 284 290 292 293 294 297 300 303 304 305
291 291 290 290 289 288 288 288 287 286 286 286 285 284 285 285 285 284 284 284 284 285 285 284 284 284 284 283 283 284 284 285 286 284 281 285 290 293 295 296 300 303 304
290 290 290 289 287 287 287 287 286 285 284 283 283 283 283 283 283 283 283 283 283 283 283 284 284 283 283 283 283 283 282 283 283 283 283 283 284 286 290 293 296 302 303
Wind_Speed
5 9 14 12 14 14 15 11 6 5 6 7 8 9 9 9 8 9 8 7 8 9 8 8 7 7 8 8 8 10 10 11 10 11 11 10 10 10 10 7 7 10 6
4 9 11 11 14 15 16 15 15 15 14 13 13 14 14 14 13 12 11 10 8 9 11 10 10 9 6 6 7 8 10 9 8 10 10 10 11 11 10 7 8 11 6
5 6 8 11 11 12 13 14 14 15 15 14 14 14 13 13 14 15 15 14 12 10 10 11 11 12 9 7 7 9 9 8 8 9 10 10 11 4 9 7 9 12 11
5 5 9 10 10 12 13 13 13 14 13 12 12 12 13 14 15 13 12 11 12 12 11 11 11 12 12 11 11 11 11 9 8 10 10 9 9 4 8 11 11 13 13
5 6 9 9 10 12 13 13 14 15 15 14 14 12 11 11 12 12 12 12 14 13 12 12 12 12 12 12 12 12 11 9 9 11 9 9 8 8 9 13 13 11 10
6 6 8 9 11 12 12 12 13 14 14 14 14 14 16 15 13 13 14 14 13 12 12 12 13 14 14 12 12 12 11 10 9 12 10 9 10 10 11 13 12 11 8
8 6 7 9 9 10 11 12 12 13 14 15 14 13 15 14 14 13 14 13 14 15 15 15 14 13 14 14 13 13 12 9 11 11 11 11 10 8 13 15 14 12 11
8 6 5 8 9 10 11 11 12 12 13 13 14 14 13 14 14 14 14 15 14 14 14 12 13 15 16 15 14 14 13 10 11 11 11 10 10 11 15 16 15 14 14
7 7 6 6 8 10 10 11 11 11 11 11 12 12 12 12 13 13 12 13 12 12 13 12 13 13 13 15 16 17 16 12 10 9 11 9 7 11 16 17 16 16 15
7 7 6 6 6 6 6 9 10 10 10 11 11 10 9 8 9 11 13 14 14 14 15 13 14 14 14 13 13 14 17 18 11 10 9 9 8 15 18 18 17 17 17
7 7 6 6 6 6 6 6 7 9 9 9 7 10 6 6 8 9 11 14 13 14 13 14 14 15 15 11 10 12 14 6 9 9 8 6 8 16 19 20 18 18 18
12 8 7 7 6 6 4 5 5 5 6 6 7 7 5 6 7 8 7 12 13 15 12 13 13 14 11 8 8 9 6 8 9 9 9 11 14 18 20 21 19 20 18
12 8 8 7 6 6 5 3 2 3 3 4 6 6 6 4 5 5 5 6 7 10 7 10 9 7 10 9 8 9 9 9 7 8 11 10 15 18 21 23 22 21 21
14 11 9 8 7 6 4 4 4 3 3 3 4 5 4 3 5 6 5 7 7 6 9 8 6 9 9 10 11 11 11 9 7 7 11 11 16 21 22 24 25 24 23
15 13 11 9 8 7 6 4 4 3 3 3 4 5 5 5 5 5 6 6 6 7 7 8 8 9 10 10 10 11 12 13 12 8 8 13 17 22 24 25 26 27 27
15 14 12 10 8 7 6 5 4 3 3 3 3 4 6 5 5 5 6 6 6 7 8 8 9 9 9 10 11 12 12 12 13 13 10 11 15 19 24 25 27 28 29
15 15 14 12 10 9 7 5 3 3 2 3 3 4 4 4 5 6 6 7 7 8 10 9 9 9 9 10 12 12 12 13 12 14 13 12 13 16 19 25 26 28 29
16 16 14 10 10 8 6 4 3 3 2 2 1 0 2 5 6 6 6 6 7 8 8 8 9 9 10 10 11 11 11 13 15 15 14 12 12 12 13 20 23 26 30
18 16 14 11 10 8 7 5 4 4 3 1 0 1 3 5 6 6 6 6 7 7 7 7 8 9 11 12 12 13 13 13 14 13 17 16 17 15 12 17 20 24 25
17 16 15 12 12 11 7 5 4 3 2 1 3 2 3 4 5 6 6 7 7 7 7 7 10 9 11 12 13 15 13 13 13 12 15 13 13 16 16 17 13 13 24
17 17 16 15 13 9 7 5 4 4 3 3 3 4 6 5 6 6 6 6 7 7 8 9 9 11 9 10 12 12 12 15 12 11 10 10 13 13 15 15 12 11 12
20 18 17 15 14 10 6 4 2 2 2 3 4 6 6 5 6 6 7 8 8 7 8 8 9 9 8 5 7 11 11 13 3 11 13 13 16 13 14 16 17 16 15
21 20 18 16 14 11 9 5 3 2 3 5 6 4 4 6 6 6 8 9 8 7 7 8 8 9 8 8 7 6 7 8 17 6 13 13 15 12 14 16 19 17 16
21 19 18 16 14 11 10 7 8 6 6 4 3 5 6 7 7 8 9 9 8 7 9 8 7 8 9 10 7 8 11 10 7 16 8 12 15 17 17 14 15 17 19
18 18 17 16 14 12 12 10 8 9 5 4 5 7 8 8 9 8 9 10 10 8 9 11 11 11 10 10 9 10 11 11 14 12 21 15 13 13 14 17 17 15 18
18 18 17 18 16 15 14 14 12 10 8 6 7 5 6 7 7 9 10 10 10 10 10 10 11 13 13 13 12 12 12 10 10 12 14 23 20 16 15 15 17 15 15
Wind_Direction
41 3 356 7 20 39 44 42 35 16 5 3 3 4 4 4 1 355 351 353 350 347 340 343 348 346 343 338 333 329 326 327 329 329 311 292 283 281 283 263 238 242 232
12 16 357 27 38 42 42 47 58 63 61 58 54 51 44 37 27 15 7 355 345 342 335 339 337 333 332 319 317 317 316 319 316 320 311 288 261 275 278 277 235 254 210
57 23 48 40 37 47 53 53 56 57 57 55 53 51 44 42 37 35 30 27 16 354 339 334 330 331 340 329 309 306 304 303 309 314 314 281 278 203 277 276 249 242 244
76 41 58 43 53 54 51 52 56 61 59 58 56 47 48 51 45 39 30 22 20 12 359 343 334 330 338 339 331 327 313 296 305 311 293 288 283 270 276 279 265 243 237
95 53 59 48 55 56 56 57 58 55 54 55 56 53 51 52 43 33 34 32 28 18 13 3 1 353 342 333 327 324 317 307 298 293 297 288 281 280 271 276 274 243 234
90 68 70 59 60 59 58 58 56 53 53 53 53 50 57 48 41 35 34 28 23 18 11 1 359 358 351 342 328 320 313 312 308 295 293 288 276 280 277 273 274 275 234
96 81 76 65 64 62 63 62 61 60 56 54 53 51 52 43 38 35 29 25 20 12 6 3 2 357 350 349 348 337 316 304 298 298 292 286 282 297 277 275 274 267 243
112 101 105 71 68 67 65 64 63 63 62 60 55 52 48 43 36 30 22 20 14 7 4 2 3 359 357 350 346 346 351 330 299 290 290 286 293 295 285 279 273 267 253
126 132 124 105 93 78 67 66 64 68 70 68 64 56 49 47 38 32 27 18 14 6 358 360 356 352 349 345 343 345 343 334 298 280 280 278 281 282 286 283 277 268 257
143 138 124 121 112 97 90 69 73 75 76 71 61 53 44 44 33 30 19 15 11 8 360 353 347 344 338 333 338 340 335 306 273 277 268 268 284 282 282 283 279 275 262
156 151 144 137 135 128 113 93 92 77 72 69 61 45 46 28 21 12 16 6 7 3 358 354 349 340 333 315 325 335 314 316 314 297 284 283 284 276 275 277 277 273 266
173 164 155 155 143 137 119 107 89 78 62 57 49 41 31 23 16 360 360 354 355 358 352 350 348 335 332 332 321 315 315 309 293 289 284 321 304 283 278 275 271 272 265
175 167 168 163 155 147 136 135 116 93 84 67 52 39 31 21 12 7 352 352 351 356 351 346 340 344 333 323 320 311 308 300 295 286 278 287 287 288 286 278 273 269 267
178 173 171 170 162 147 152 145 139 124 102 87 66 43 25 21 11 5 360 349 348 346 339 337 332 326 322 315 311 306 302 298 291 292 286 278 282 278 270 277 276 271 266
184 175 174 172 168 158 163 159 138 119 96 79 67 50 22 17 10 354 348 341 337 337 335 329 329 329 323 316 309 302 302 299 292 287 286 286 284 286 282 268 267 270 269
185 179 170 175 175 170 168 156 138 124 106 85 68 46 31 7 357 345 342 337 333 339 333 324 327 324 317 314 308 304 297 290 289 287 284 285 279 277 277 277 268 264 264
185 178 181 176 175 177 167 146 145 132 128 99 70 55 27 360 348 344 335 330 335 331 320 319 322 319 316 311 304 302 297 293 288 288 286 282 284 273 266 268 269 266 261
187 184 178 177 177 173 161 148 162 166 137 117 85 318 346 351 344 335 328 319 327 316 319 321 325 323 315 311 306 303 299 294 290 283 280 278 277 280 280 274 269 262 262
185 184 182 182 180 173 170 176 189 190 188 135 230 305 345 332 325 317 305 303 315 313 314 319 319 317 313 312 307 304 296 290 286 283 279 277 278 275 275 273 267 273 270
187 184 181 182 183 181 178 182 190 186 200 231 232 255 266 284 288 297 306 309 305 302 307 317 313 314 308 309 308 300 291 287 278 276 277 279 275 274 279 277 276 263 253
188 186 189 185 186 184 187 191 196 197 195 243 220 252 251 282 290 297 296 297 293 297 314 315 310 310 314 317 310 316 298 278 269 268 281 286 286 279 275 280 277 274 270
188 190 192 192 187 193 189 177 175 173 233 268 261 252 252 288 286 294 300 297 291 293 300 309 317 308 304 311 316 298 318 309 181 328 297 287 288 294 284 284 281 280 275
193 192 192 192 190 189 180 161 158 205 250 240 233 240 260 270 290 286 276 277 288 299 299 296 295 298 295 297 290 285 308 299 329 306 317 291 290 291 285 286 280 284 283
195 192 192 188 185 184 179 185 202 218 229 223 269 272 284 295 293 279 282 283 291 283 278 281 284 285 286 280 286 239 249 281 298 310 294 301 299 281 278 276 276 279 274
190 189 189 186 184 180 185 194 199 219 239 271 281 285 287 290 280 285 279 281 276 272 278 281 282 277 272 274 270 272 273 262 259 269 290 289 282 278 283 268 266 268 267
191 191 186 186 187 184 185 194 203 213 218 231 241 260 264 271 286 274 266 270 276 281 281 287 287 280 279 275 273 269 263 257 260 262 265 287 286 284 280 278 282 277 268